Location: Velillas
(42.1206°N, 0.2058°W)
Time: 14:10:44
(UTC+00:00)

Daily predictions for brighter satellites

Satellite Brightness Start Highest point End
(mag) Time Altitude Azimuth Time Altitude Azimuth Time Altitude Azimuth
Cosmos 2360 Rocket 2.8 17:17:10 10° NNW 17:22:46 64° WSW 17:28:18 10° S
Cosmos 2228 4.0 17:19:58 10° NNW 17:24:12 53° W 17:28:21 10° S
Cosmos 2150 Rocket 4.0 17:19:31 10° S 17:24:38 68° ESE 17:29:46 10° NNE
Cosmos 2227 Rocket 3.8 17:25:08 10° SE 17:27:55 14° E 17:30:42 10° ENE
CZ-4 R/B 2.7 17:25:36 10° ESE 17:28:34 20° ENE 17:31:35 10° NNE
COSMOS 2428 2.9 17:23:39 10° NNW 17:29:15 50° ENE 17:34:48 10° SE
Cosmos 2219 Rocket 2.3 17:25:30 10° NNW 17:31:05 53° ENE 17:36:35 10° SE
SKYMED 2 4.4 17:29:47 10° NNE 17:33:41 31° E 17:37:32 10° SSE
Cosmos 2184 Rocket 4.0 17:27:32 10° S 17:33:42 77° E 17:39:52 10° N
USA 234 3.6 17:27:33 10° SE 17:34:05 73° SW 17:40:38 10° NW
Cosmos 2154 Rocket 4.1 17:35:28 10° SSE 17:41:35 56° E 17:47:40 10° NNE
Cosmos 1125 Rocket 3.6 17:38:46 10° S 17:43:48 55° ESE 17:48:53 10° NNE
Cosmos 1812 Rocket 4.0 17:42:18 10° N 17:46:33 41° ENE 17:50:46 10° SSE
YAOGAN 1 3.3 17:49:14 10° SE 17:53:00 30° ENE 17:56:46 10° N
Envisat 3.0 17:51:42 10° SSE 17:56:47 88° WSW 18:01:54 10° NNW
Cosmos 1610 Rocket 4.4 17:51:55 10° S 17:58:01 80° E 18:04:11 10° N
Alouette 2 Rocket 4.5 17:53:41 10° NNW 17:58:28 82° W 18:05:57 10° S
Cosmos 1269 Rocket 4.5 17:56:41 10° N 18:01:35 37° ENE 18:06:28 10° SE
CSL-04 Debris 4.4 18:00:25 10° SE 18:05:29 44° ENE 18:10:34 10° N
Cosmos 1048 Rocket 4.0 18:01:19 10° NNW 18:06:29 88° WSW 18:11:35 10° SSE
Cosmos-2242 3.9 18:03:47 10° NNE 18:07:28 26° ENE 18:11:06 10° SE
CZ-4C R/B 3.0 18:01:04 10° NNW 18:08:20 69° NE 18:16:35 10° SE
Cosmos 1295 Rocket 4.5 18:02:39 10° S 18:08:56 69° E 18:15:14 10° NNE
CZ-2D R/B 4.0 18:05:53 10° SE 18:09:12 29° ENE 18:12:35 10° N
Starlink AQ 4.4 18:09:03 10° W 18:11:33 26° NNW 18:13:06 17° NNE
Cosmos 1602 Rocket 3.7 18:07:26 10° S 18:11:50 79° W 18:16:14 10° N
ISS -1.7 18:10:20 10° SSE 18:12:10 14° SE 18:12:26 14° SE
Starlink AR 4.4 18:10:52 10° WNW 18:12:52 20° NNW 18:13:56 16° N
Starlink BA 4.4 18:11:30 10° W 18:13:57 24° NNW 18:15:22 17° NNE
Starlink AS 4.4 18:11:38 10° W 18:14:06 25° NNW 18:15:31 17° NNE
Starlink AU 4.4 18:12:03 10° W 18:14:31 24° NNW 18:15:56 17° NNE
Starlink BB 4.4 18:12:10 10° W 18:14:37 24° NNW 18:16:00 17° NNE
Starlink AT 4.5 18:12:18 10° W 18:14:45 24° NNW 18:16:09 17° NNE
Starlink BC 4.5 18:12:25 10° W 18:14:51 24° NNW 18:16:14 17° NNE
Meteor 2-10 Rocket 4.3 18:10:35 10° N 18:15:15 29° ENE 18:19:45 10° SE
Starlink AY 4.5 18:12:52 10° W 18:15:17 24° NNW 18:16:40 17° NNE
Starlink BK 4.5 18:12:58 10° W 18:15:25 24° NNW 18:16:48 17° NNE
Starlink AW 4.5 18:13:05 10° W 18:15:31 24° NNW 18:16:52 17° NNE
ATLAS CENTAUR R/B 4.4 18:10:13 10° W 18:15:36 46° NNW 18:28:22 12° NE
Starlink AV 4.5 18:13:29 10° W 18:15:54 24° NNW 18:17:15 17° NNE
Starlink BJ 4.5 18:13:36 10° W 18:16:03 24° NNW 18:17:24 17° NNE
Starlink BD 4.5 18:13:43 10° W 18:16:08 24° NNW 18:17:28 17° NNE
Starlink BE 4.5 18:14:16 10° W 18:16:44 24° NNW 18:18:04 17° NNE
Starlink AX 4.5 18:14:24 10° W 18:16:48 24° NNW 18:18:06 17° NNE
Starlink BM 4.5 18:14:30 10° W 18:16:56 24° NNW 18:18:15 17° NNE
Cosmos 2333 Rocket 2.7 18:12:31 10° NNW 18:18:10 63° WSW 18:23:44 10° S
Cosmos 962 Rocket 4.4 18:13:09 10° S 18:19:11 69° E 18:25:18 10° NNE
Cosmos 2237 Rocket 2.3 18:14:39 10° NNW 18:20:08 49° ENE 18:25:33 10° SE
Meteor 1-21 Rocket 4.2 18:14:50 10° S 18:20:14 56° E 18:25:46 10° NNE
COSMO-SKYMED 1 2.7 18:17:32 10° N 18:21:54 77° WNW 18:26:13 10° SSW
Cosmos 1461 3.7 18:18:07 10° NW 18:22:24 57° WSW 18:26:49 10° SSE
Cosmos 1340 Rocket 2.8 18:18:48 10° N 18:22:45 84° W 18:26:44 10° S
Cosmos 1300 3.5 18:19:09 10° NNW 18:22:54 54° W 18:26:36 10° S
Okean-O 3.5 18:18:49 10° S 18:23:07 51° W 18:27:28 10° NNW
Cosmos 1953 Rocket 4.2 18:19:10 10° SSE 18:23:12 34° E 18:25:10 23° NE
Nadezhda 3 Rocket 4.3 18:20:53 10° NNW 18:27:08 72° W 18:33:25 10° S
ADEOS Rocket 3.7 18:21:56 10° NNE 18:28:00 39° E 18:34:37 10° SSE
Cosmos 1758 Rocket 3.4 18:24:17 10° S 18:28:33 67° E 18:32:50 10° NNE
CSL-04 Rocket 3.6 18:29:47 10° SSE 18:35:14 78° ENE 18:40:47 10° NNW
ERBS 2.2 18:33:17 10° SSW 18:36:34 60° SE 18:36:50 57° ESE
Cosmos 1727 Rocket 4.5 18:31:56 10° N 18:37:31 34° ENE 18:43:03 10° SE
Cosmos 1939 Rocket 2.7 18:34:03 10° SSE 18:37:53 66° ENE 18:41:48 10° N
Cosmos 1455 4.3 18:35:55 10° N 18:36:37 15° N 18:36:37 15° N
Cosmos 44 4.1 18:35:56 10° S 18:39:36 29° ESE 18:39:36 29° ESE
SL-16 R/B 3.0 18:35:04 10° N 18:39:50 29° NE 18:39:50 29° NE
Ariane Rocket 3.4 18:37:49 24° ESE 18:40:13 38° ENE 18:44:54 10° N
Cosmos 2219 3.2 18:36:40 10° SSW 18:42:16 86° WNW 18:46:52 16° NNE
H-2A R/B 4.1 18:46:39 11° NNE 18:46:39 11° NNE 18:46:54 10° NNE
Cosmos 2341 Rocket 4.1 18:37:16 10° S 18:43:40 85° W 18:50:04 10° N
Cosmos 1626 4.5 18:40:58 10° SW 18:44:01 24° WNW 18:47:06 10° NNW
NOSS 0 Rocket 4.1 18:39:07 10° NNW 18:45:20 74° WSW 18:51:30 10° SSE
Cosmos 494 Rocket 4.2 18:40:40 10° NNW 18:45:46 71° WSW 18:50:51 10° S
ATLAS 5 CENTAUR R/B 4.2 18:43:51 10° NW 18:45:49 13° NNW 18:47:53 10° N
SL-8 R/B 4.2 18:41:43 10° SSW 18:46:13 41° SE 18:46:59 38° ESE
Cosmos 2082 4.1 18:41:36 10° S 18:46:45 39° ESE 18:47:22 38° E
SL-8 Rocket 3.9 18:43:07 10° S 18:49:25 79° E 18:55:44 10° N
Cosmos 1825 Rocket 3.7 18:50:28 10° SSW 18:54:49 71° W 18:58:40 13° N
Cosmos 2297 Rocket 2.1 18:53:34 10° SSW 18:59:14 90° WNW 19:02:19 28° NNE
Cosmos 1980 3.9 18:56:16 10° NNW 19:01:57 73° WSW 19:07:36 10° SSE
DELTA 2 R/B (1) 3.7 18:57:18 10° WSW 19:02:48 62° S 19:04:00 49° ESE
CZ-4 R/B 3.2 18:59:45 10° SSW 19:03:22 33° W 19:07:04 10° NNW
NOSS 2-1 (C) 4.4 19:03:27 10° NNW 19:08:56 69° NE 19:11:34 40° SE
Cosmos 2227 Rocket 2.2 19:05:32 10° SSW 19:11:11 80° WNW 19:13:41 35° NNE
Cosmos 1703 4.3 19:08:12 10° S 19:10:37 36° S 19:10:37 36° S
NOSS 2-1 (D) 4.4 19:07:13 10° NNW 19:12:46 73° NE 19:15:24 41° SE
SL-08 R/B 4.4 19:09:34 10° S 19:15:45 69° E 19:19:31 26° NNE
Cosmos 2218 Rocket 4.1 19:12:07 10° SSW 19:18:25 76° W 19:24:49 10° N
Atlas Centaur 2 4.1 19:21:47 10° SSW 19:24:53 18° SSE 19:24:53 18° SSE
FALCON 9 R/B 4.1 19:21:04 10° SW 19:31:54 26° S 19:33:10 24° SSE
ISS -0.4 19:45:12 10° WSW 19:45:24 11° WSW 19:45:24 11° WSW
Cosmos 2237 Rocket 4.3 19:59:26 10° NW 20:03:48 24° WSW 20:08:10 10° SSW
ADEOS Rocket 4.4 20:07:31 10° N 20:13:27 40° WNW 20:19:56 10° SW
SL-16 R/B 3.9 20:18:53 10° NW 20:21:47 28° NW 20:21:47 28° NW
